FENGYUN 1C DEB

Satellite information

Favourite Embed

Satellite Type and Status

DEBRISIN ORBIT

Key statistics

Satellite FENGYUN 1C DEB at a glance.

Uptime

9610

Days in orbit

Revolutions

≈ 14.4

Per day

Orbit

SSO

Sun Synchronous Orbit

Inclination

98.9

Latest

Satellite identification and parameters

Extended collection of information and parameters for FENGYUN 1C DEB.

Object identification

Identified? True

Debris? True

Object name: FENGYUN 1C DEB

International designator: 1999-025VE

Object number (NORAD): 30197

Object ID (CCSDS): 30197

Country: PEOPLES REPUBLIC OF CHINA (PRC)

Current information (Y/N): Y

RCS size: SMALL

Orbital parameters

Period: 100.251 minutes

Inclination: 98.9288 deg

SMA: 7148.584 km

Apoapsis: 812.384 km

Periapsis: 728.514 km

RAAN: 164.207 deg

Eccentricy: 0.00586617

Argument of periapsis: 159.3868 deg

Mean anomaly: 255.2905 deg

Mean motion: 14.36391111 rev/day

Mean motion (dot): 0.00002829 rev/day2

B* drag term: 0.00096277785 1/REarth

Two-line elements (TLE)

Creation date: Aug. 31, 2025, 2:26 a.m.

Reference frame: TEME

Reference center: EARTH

Epoch: Aug. 30, 2025, 5:52 p.m. UTC

TLE line 0: 0 FENGYUN 1C DEB

TLE line 1: 1 30197U 99025VE 25242.74472157 .00002829 00000-0 96278-3 0 9993

TLE line 2: 2 30197 98.9288 164.2070 0058662 159.3868 255.2905 14.36391111969937

Live tracking on map

Real-time ground track for satellite FENGYUN 1C DEB.

In-orbit conjunctions

A list of the most updated potential collisions computed for object FENGYUN 1C DEB.

Target Orbit TCA Probability of collision Miss distance Type
DELTA 1 DEB SSO 2025-07-28 15:07:42 0.0004966536 41.0 (m) DEBRIS
CZ-6A DEB LEO 2025-07-19 23:04:08 0.0001824289 144.0 (m) DEBRIS
TRANSIT 10 DEB LEO 2025-07-09 12:04:46 0.0001409006 173.0 (m) DEBRIS
OSCAR 18 (WEBERSAT) SSO 2025-04-23 13:58:29 0.001562683 263.0 (m) PAYLOAD
FENGYUN 1C DEB SSO 2025-02-10 14:39:52 0.0001297129 161.0 (m) DEBRIS

Associated space launch

Chinese polar orbiting meteorological satellite

FENGYUN 1C DEB was lifted into orbit during the mission ‘Long March 4B | Feng Yun 1C’, on board a Long March 4B space rocket.

The launch took place on May 10, 1999, 1:33 a.m. from Launch Complex 7.

For more information about the launch, click the button.

Launch to space Long March 4B | Feng Yun 1C
Long March 4B | Feng Yun 1C

Agency: N/A

Status: Launch Successful

Launch date: May 10, 1999, 1:33 a.m. UTC

Rocket: Long March 4B

Launch pad: Launch Complex 7

Location: Taiyuan Satellite Launch Center, People's Republic of China

...

Latest news about this satellite

There are no fresh news available about this satellite. Check back as we update our databases every day.


Newsletter sign-up

Weekly statistics, charts and insights to help you stay on top of the space industry.